| time (UTC) | temp F | wind direction | speed MPH | gust MPH | rain 1hr in | rain 24hr in | rain mn in | humidity % | barometer mb |
| 20260506154125 | 63 | 0.0 | 0.0 | 0.00 | 0.00 | 0.00 | 84 | 1051.6 | |
| 20260506152549 | 62 | 0.0 | 0.0 | 0.00 | 0.00 | 0.00 | 84 | 1051.7 | |
| 20260506151013 | 60 | 0.0 | 0.0 | 0.00 | 0.00 | 0.00 | 81 | 1051.9 | |
| 20260506143901 | 61 | 0.0 | 0.0 | 0.00 | 0.00 | 0.00 | 75 | 1051.9 | |
| 20260506142325 | 62 | 0.0 | 0.0 | 0.00 | 0.00 | 0.00 | 67 | 1052.0 | |
| 20260506140749 | 63 | 0.0 | 0.0 | 0.00 | 0.00 | 0.00 | 62 | 1051.9 | |
| 20260506135213 | 66 | 0.0 | 0.0 | 0.00 | 0.00 | 0.00 | 53 | 1051.9 | |
| 20260506133637 | 70 | 0.0 | 0.0 | 0.00 | 0.00 | 0.00 | 49 | 1051.9 | |
| 20260506132101 | 69 | 0.0 | 0.0 | 0.00 | 0.00 | 0.00 | 49 | 1051.8 | |
| 20260506130525 | 70 | 0.0 | 0.0 | 0.00 | 0.00 | 0.00 | 50 | 1051.8 | |
| 20260506124949 | 68 | 0.0 | 0.0 | 0.00 | 0.00 | 0.00 | 53 | 1051.7 | |
| 20260506123413 | 68 | 0.0 | 0.0 | 0.00 | 0.00 | 0.00 | 52 | 1051.5 | |
| 20260506121837 | 66 | 0.0 | 0.0 | 0.00 | 0.00 | 0.00 | 53 | 1051.4 | |
| 20260506120301 | 68 | 0.0 | 0.0 | 0.00 | 0.00 | 0.00 | 52 | 1051.3 | |
| 20260506114725 | 70 | 0.0 | 0.0 | 0.00 | 0.00 | 0.00 | 47 | 1051.4 | |
| 20260506113149 | 70 | 0.0 | 0.0 | 0.00 | 0.00 | 0.00 | 47 | 1051.5 | |
| 20260506111613 | 68 | 0.0 | 0.0 | 0.00 | 0.00 | 0.00 | 52 | 1051.6 | |
| 20260506110037 | 69 | 0.0 | 0.0 | 0.00 | 0.00 | 0.00 | 51 | 1051.5 | |
| 20260506104501 | 68 | 0.0 | 0.0 | 0.00 | 0.00 | 0.00 | 52 | 1051.6 | |
| 20260506102925 | 67 | 0.0 | 0.0 | 0.00 | 0.00 | 0.00 | 52 | 1051.4 | |
| 20260506101349 | 68 | 0.0 | 0.0 | 0.00 | 0.00 | 0.00 | 49 | 1051.3 | |
| 20260506095814 | 70 | 0.0 | 0.0 | 0.00 | 0.00 | 0.00 | 50 | 1051.3 | |
| 20260506094238 | 67 | 0.0 | 0.0 | 0.00 | 0.00 | 0.00 | 56 | 1051.4 | |
| 20260506092702 | 64 | 0.0 | 0.0 | 0.00 | 0.00 | 0.00 | 56 | 1051.4 | |
| 20260506091126 | 64 | 0.0 | 0.0 | 0.00 | 0.00 | 0.00 | 56 | 1051.2 | |
| 20260506085550 | 65 | 0.0 | 0.0 | 0.00 | 0.00 | 0.00 | 57 | 1051.2 | |
| 20260506084014 | 62 | 0.0 | 0.0 | 0.00 | 0.00 | 0.00 | 58 | 1051.1 | |
| 20260506082438 | 64 | 0.0 | 0.0 | 0.00 | 0.00 | 0.00 | 57 | 1051.1 | |
| 20260506080902 | 64 | 0.0 | 0.0 | 0.00 | 0.00 | 0.00 | 60 | 1051.2 | |
| 20260506072214 | 61 | 0.0 | 0.0 | 0.00 | 0.00 | 0.00 | 81 | 1051.1 | |
| 20260506070638 | 60 | 0.0 | 0.0 | 0.00 | 0.00 | 0.00 | 84 | 1051.1 | |
| 20260506061950 | 57 | 0.0 | 0.0 | 0.00 | 0.00 | 0.00 | 88 | 1050.9 | |
| 20260506060414 | 57 | 0.0 | 0.0 | 0.00 | 0.00 | 0.00 | 89 | 1050.9 | |
| 20260506050150 | 55 | 0.0 | 0.0 | 0.00 | 0.00 | 0.00 | 91 | 1050.6 | |
| 20260506044614 | 55 | 0.0 | 0.0 | 0.00 | 0.00 | 0.00 | 91 | 1050.6 | |
| 20260506043038 | 55 | 0.0 | 0.0 | 0.00 | 0.00 | 0.00 | 92 | 1050.6 | |
| 20260506041502 | 55 | 0.0 | 0.0 | 0.00 | 0.00 | 0.00 | 92 | 1050.5 | |
| 20260506035926 | 54 | 0.0 | 0.0 | 0.00 | 0.00 | 0.00 | 93 | 1050.7 | |
| 20260506034350 | 54 | 0.0 | 0.0 | 0.00 | 0.00 | 0.00 | 93 | 1050.7 | |
| 20260506032814 | 55 | 0.0 | 0.0 | 0.00 | 0.00 | 0.00 | 92 | 1050.7 | |
| 20260506031238 | 55 | 0.0 | 0.0 | 0.00 | 0.00 | 0.00 | 93 | 1050.7 | |
| 20260506025703 | 54 | 0.0 | 0.0 | 0.00 | 0.00 | 0.00 | 94 | 1050.8 | |
| 20260506024127 | 55 | 0.0 | 0.0 | 0.00 | 0.00 | 0.00 | 93 | 1050.8 | |
| 20260506022551 | 54 | 0.0 | 0.0 | 0.00 | 0.00 | 0.00 | 95 | 1050.8 | |
| 20260506021015 | 54 | 0.0 | 0.0 | 0.00 | 0.00 | 0.00 | 96 | 1050.8 | |
| 20260506015439 | 55 | 0.0 | 0.0 | 0.00 | 0.00 | 0.00 | 97 | 1051.0 | |
| 20260506012327 | 56 | 0.0 | 0.0 | 0.00 | 0.00 | 0.00 | 10 | 1051.0 | |
| 20260506010751 | 55 | 0.0 | 0.0 | 0.00 | 0.00 | 0.00 | 10 | 1051.1 | |
| 20260506005215 | 55 | 0.0 | 0.0 | 0.00 | 0.00 | 0.00 | 10 | 1051.2 | |
| 20260506003639 | 55 | 0.0 | 0.0 | 0.00 | 0.00 | 0.00 | 10 | 1051.4 | |
| 20260506002103 | 55 | 0.0 | 0.0 | 0.00 | 0.00 | 0.00 | 10 | 1051.5 | |
| 20260506000527 | 54 | 0.0 | 0.0 | 0.00 | 0.00 | 0.00 | 10 | 1051.5 | |
| 20260505234951 | 54 | 0.0 | 0.0 | 0.00 | 0.00 | 0.00 | 10 | 1051.6 | |
| 20260505233415 | 54 | 0.0 | 0.0 | 0.00 | 0.00 | 0.00 | 10 | 1051.6 | |
| 20260505231839 | 55 | 0.0 | 0.0 | 0.00 | 0.00 | 0.00 | 10 | 1051.6 | |
| 20260505230303 | 55 | 0.0 | 0.0 | 0.00 | 0.00 | 0.00 | 10 | 1051.6 | |
| 20260505224727 | 53 | 0.0 | 0.0 | 0.00 | 0.00 | 0.00 | 10 | 1051.7 | |
| 20260505223151 | 54 | 0.0 | 0.0 | 0.00 | 0.00 | 0.00 | 10 | 1051.6 | |
| 20260505221615 | 54 | 0.0 | 0.0 | 0.00 | 0.00 | 0.00 | 10 | 1051.9 | |
| 20260505220039 | 54 | 0.0 | 0.0 | 0.00 | 0.00 | 0.00 | 10 | 1051.8 | |
| 20260505214503 | 54 | 0.0 | 0.0 | 0.00 | 0.00 | 0.00 | 10 | 1051.9 | |
| 20260505212927 | 54 | 0.0 | 0.0 | 0.00 | 0.00 | 0.00 | 10 | 1052.1 | |
| 20260505211351 | 54 | 0.0 | 0.0 | 0.00 | 0.00 | 0.00 | 10 | 1052.1 | |
| 20260505205815 | 55 | 0.0 | 0.0 | 0.00 | 0.00 | 0.00 | 10 | 1052.0 | |
| 20260505204239 | 55 | 0.0 | 0.0 | 0.00 | 0.00 | 0.00 | 98 | 1051.9 | |
| 20260505202703 | 55 | 0.0 | 0.0 | 0.00 | 0.00 | 0.00 | 96 | 1051.9 | |
| 20260505201127 | 56 | 0.0 | 0.0 | 0.00 | 0.00 | 0.00 | 93 | 1051.9 | |
| 20260505195552 | 57 | 0.0 | 0.0 | 0.00 | 0.00 | 0.00 | 91 | 1051.6 | |
| 20260505194016 | 56 | 0.0 | 0.0 | 0.00 | 0.00 | 0.00 | 89 | 1051.5 | |
| 20260505192440 | 56 | 0.0 | 0.0 | 0.00 | 0.00 | 0.00 | 86 | 1051.4 | |
| 20260505190904 | 56 | 0.0 | 0.0 | 0.00 | 0.00 | 0.00 | 82 | 1051.3 | |
| 20260505185328 | 55 | 0.0 | 0.0 | 0.00 | 0.00 | 0.00 | 77 | 1051.4 | |
| 20260505183752 | 58 | 0.0 | 0.0 | 0.00 | 0.00 | 0.00 | 68 | 1051.3 | |
| 20260505182216 | 60 | 0.0 | 0.0 | 0.00 | 0.00 | 0.00 | 64 | 1051.1 | |
| 20260505180640 | 61 | 0.0 | 0.0 | 0.00 | 0.00 | 0.00 | 62 | 1051.1 | |
| 20260505175104 | 63 | 0.0 | 0.0 | 0.00 | 0.00 | 0.00 | 60 | 1051.2 | |
| 20260505173528 | 64 | 0.0 | 0.0 | 0.00 | 0.00 | 0.00 | 61 | 1051.1 | |
| 20260505171952 | 62 | 0.0 | 0.0 | 0.00 | 0.00 | 0.00 | 57 | 1051.1 | |
| 20260505170416 | 63 | 0.0 | 0.0 | 0.00 | 0.00 | 0.00 | 57 | 1051.0 | |
| 20260505164840 | 62 | 0.0 | 0.0 | 0.00 | 0.00 | 0.00 | 55 | 1051.2 | |
| 20260505163304 | 64 | 0.0 | 0.0 | 0.00 | 0.00 | 0.00 | 58 | 1051.1 | |
| 20260505161728 | 61 | 0.0 | 0.0 | 0.00 | 0.00 | 0.00 | 59 | 1051.3 | |
| 20260505160152 | 64 | 0.0 | 0.0 | 0.00 | 0.00 | 0.00 | 56 | 1051.0 |